This is the latest recevied weather packets stored in our database for station/object W1TG-2. If no packets are shown the sender has not sent any weather packets the latest 10 day(s).
| Time | Temp. | Humidity | Pressure | Rain* | Wind** | Luminosity | Snow |
|---|---|---|---|---|---|---|---|
| 1787972043 | 22.22° C | 80% | 1015.5 hPa | 0 mm | - | - | - |
| 1787971684 | 22.22° C | 79% | 1015.4 hPa | 0 mm | - | - | - |
| 1787971323 | 22.78° C | 80% | 1015.4 hPa | 0 mm | - | - | - |
| 1787970963 | 22.78° C | 80% | 1015.2 hPa | 0 mm | - | - | - |
| 1787970604 | 22.78° C | 80% | 1015.3 hPa | 0 mm | - | - | - |
| 1787970243 | 22.78° C | 79% | 1015 hPa | 0 mm | - | - | - |
| 1787969883 | 22.78° C | 78% | 1014.9 hPa | 0 mm | - | - | - |
| 1787969524 | 23.33° C | 78% | 1014.7 hPa | 0 mm | - | - | - |
| 1787969163 | 23.33° C | 78% | 1014.7 hPa | 0 mm | - | - | - |
| 1787968803 | 23.33° C | 78% | 1014.7 hPa | 0 mm | - | - | - |
| 1787968444 | 23.33° C | 77% | 1014.6 hPa | 0 mm | - | - | - |
| 1787968083 | 23.33° C | 78% | 1014.5 hPa | 0 mm | - | - | - |
| 1787967723 | 23.33° C | 78% | 1014.5 hPa | 0 mm | - | - | - |
| 1787967364 | 23.33° C | 79% | 1014.4 hPa | 0 mm | - | - | - |
| 1787967003 | 23.33° C | 80% | 1014.4 hPa | 0 mm | - | - | - |
| 1787966643 | 23.33° C | 82% | 1014.4 hPa | 0 mm | - | - | - |
| 1787966284 | 22.78° C | 85% | 1014.4 hPa | 0 mm | - | - | - |
| 1787965923 | 22.22° C | 89% | 1014.5 hPa | 0 mm | - | - | - |
| 1787965564 | 22.22° C | 91% | 1014.4 hPa | 0 mm | - | - | - |
| 1787965204 | 22.22° C | 92% | 1014.4 hPa | 0 mm | - | - | - |
| 1787964843 | 22.22° C | 92% | 1014.3 hPa | 0 mm | - | - | - |
| 1787964484 | 22.22° C | 92% | 1014.3 hPa | 0 mm | - | - | - |
| 1787964124 | 22.22° C | 92% | 1014.2 hPa | 0 mm | - | - | - |
| 1787963763 | 22.22° C | 92% | 1014.2 hPa | 0 mm | - | - | - |
| 1787963404 | 22.22° C | 92% | 1014.2 hPa | 0 mm | - | - | - |
* Rain latest hour (hover to see other rain measurements)
** Current wind speed in m/s (hover to see current wind gust speed)